Cimbria — V2CC7 — position and weather

sailwx.info

Track history (hours):
 
Tides and Currents Weather Stations Pressure Air Temp Water Temp Dewpoint Dewpoint Depression Visibility Wind Speed Wind Dir Waves Ship Positions

Cimbria

Last reported at 2014-Nov-25 18:13 UTC. Time now 2014-Nov-26 15:08 UTC.
Position N 37°40' E 024°12'.

Length 109 m; draft 4.5 m.

Type: Cargo ship. MMSI: 304981000.

Date/timePositionNaut miles runAvg speedWind from/ knotsBaromVisibWave heightAir tempDewpointWater temp
2014-Nov-25 18:13N 37°40' E 024°12'710.4
2014-Nov-25 17:31N 37°36' E 024°05'1211.1
2014-Nov-25 16:28N 37°38' E 023°50'1010.6
2014-Nov-25 15:33N 37°43' E 023°40'1111.5
2014-Nov-25 14:33N 37°54' E 023°36'8 7.6
2014-Nov-25 13:33N 38°01' E 023°33'1 0.7
2014-Nov-25 12:32N 38°02' E 023°32'0 0.0
2014-Nov-25 11:32N 38°02' E 023°32'0 0.0
2014-Nov-25 10:29N 38°02' E 023°32'0 0.0
2014-Nov-25 09:32N 38°02' E 023°32'0 0.0
2014-Nov-25 08:32N 38°02' E 023°32'0 0.0
2014-Nov-25 07:32N 38°02' E 023°32'0 0.0
2014-Nov-25 06:32N 38°02' E 023°32'0 0.0
2014-Nov-25 05:32N 38°02' E 023°32'0 0.0
2014-Nov-25 04:32N 38°02' E 023°32'0 0.0
2014-Nov-25 03:32N 38°02' E 023°32'0 0.0
2014-Nov-25 02:32N 38°02' E 023°32'0 0.0
2014-Nov-25 01:32N 38°02' E 023°32'0 0.0
2014-Nov-25 00:32N 38°02' E 023°32'0 0.0
2014-Nov-24 23:32N 38°02' E 023°32'0 0.0
2014-Nov-24 22:32N 38°02' E 023°32'0 0.0
2014-Nov-24 21:32N 38°02' E 023°32'0 0.0
2014-Nov-24 20:32N 38°02' E 023°32'0 0.0
2014-Nov-24 19:32N 38°02' E 023°32'0 0.0
2014-Nov-24 18:32N 38°02' E 023°32'0 0.0
2014-Nov-24 17:32N 38°02' E 023°32'0 0.0
2014-Nov-24 16:32N 38°02' E 023°32'0 0.0
2014-Nov-24 15:32N 38°02' E 023°32'0 0.0
2014-Nov-24 14:32N 38°02' E 023°32'0 0.0
2014-Nov-24 13:32N 38°02' E 023°32'0 0.0
2014-Nov-24 12:32N 38°02' E 023°32'0 0.0
2014-Nov-24 11:26N 38°02' E 023°32'0 0.0
2014-Nov-24 10:32N 38°02' E 023°32'0 0.0
2014-Nov-24 09:32N 38°02' E 023°32'0 0.0
2014-Nov-24 08:32N 38°02' E 023°32'0 0.0
2014-Nov-24 07:32N 38°02' E 023°32'0 0.0
2014-Nov-24 06:32N 38°02' E 023°32'0 0.0
2014-Nov-24 05:32N 38°02' E 023°32'0 0.0
2014-Nov-24 04:32N 38°02' E 023°32'0 0.0
2014-Nov-24 03:32N 38°02' E 023°32'0 0.0
2014-Nov-24 02:32N 38°02' E 023°32'0 0.0
2014-Nov-24 01:32N 38°02' E 023°32'0 0.0
2014-Nov-24 00:32N 38°02' E 023°32'0 0.0
2014-Nov-23 23:32N 38°02' E 023°32'0 0.0
2014-Nov-23 22:29N 38°02' E 023°32'0 0.0
2014-Nov-23 21:32N 38°02' E 023°32'0 0.0
2014-Nov-23 20:32N 38°02' E 023°32'0 0.0
2014-Nov-23 19:29N 38°02' E 023°32'0 0.0
2014-Nov-23 18:32N 38°02' E 023°32'0 0.0
2014-Nov-23 17:32N 38°02' E 023°32'0 0.0
2014-Nov-23 16:32N 38°02' E 023°32'0 0.0
2014-Nov-23 15:32N 38°02' E 023°32'0 0.0
2014-Nov-23 14:32N 38°02' E 023°32'0 0.0
2014-Nov-23 13:32N 38°02' E 023°32'0 0.0
2014-Nov-23 12:32N 38°02' E 023°32'0 0.0
2014-Nov-23 11:32N 38°02' E 023°32'0 0.5
2014-Nov-23 10:33N 38°02' E 023°32'7 7.3
2014-Nov-23 09:34N 37°55' E 023°37'2 2.3
2014-Nov-23 08:33N 37°53' E 023°38'9 9.3
2014-Nov-23 07:33N 37°45' E 023°43'9 8.7
2014-Nov-23 06:30N 37°36' E 023°45'46 9.1
2014-Nov-23 01:26N 36°50' E 023°33'  
2014-Nov-20 10:07N 37°50' E 015°45'16 8.8
2014-Nov-20 08:16N 38°03' E 015°33'811.2
2014-Nov-20 07:33N 38°11' E 015°36'1310.2
2014-Nov-20 06:19N 38°24' E 015°36'13811.3
2014-Nov-19 18:09N 40°26' E 014°13'610.7
2014-Nov-19 17:33N 40°31' E 014°09'1010.4
2014-Nov-19 16:34N 40°41' E 014°13'9 9.4
2014-Nov-19 15:33N 40°50' E 014°17'0 0.0
2014-Nov-18 07:26N 40°50' E 014°17'3 3.7
2014-Nov-18 06:33N 40°47' E 014°16'10 9.6
2014-Nov-18 05:33N 40°40' E 014°07'9 8.8
2014-Nov-18 04:33N 40°34' E 013°59'8 8.5
2014-Nov-18 03:34N 40°30' E 013°49'18 8.7
2014-Nov-18 01:28N 40°22' E 013°28'207 9.5
2014-Nov-17 03:32N 38°50' E 009°27'1010.6
2014-Nov-17 02:33N 38°46' E 009°15'1010.5
2014-Nov-17 01:33N 38°41' E 009°03'1110.7
2014-Nov-17 00:33N 38°38' E 008°49'1110.6
2014-Nov-16 23:32N 38°35' E 008°36'  
Track history (hours):
 
Tides and Currents Weather Stations Pressure Air Temp Water Temp Dewpoint Dewpoint Depression Visibility Wind Speed Wind Dir Waves Ship Positions

Cimbria

Last reported at 2014-Nov-25 18:13 UTC. Time now 2014-Nov-26 15:08 UTC.
Position N 37°40' E 024°12'.

Length 109 m; draft 4.5 m.

Type: Cargo ship. MMSI: 304981000.

Date/timePositionNaut miles runAvg speedWind from/ knotsBaromVisibWave heightAir tempDewpointWater temp
2014-Nov-25 18:13N 37°40' E 024°12'710.4
2014-Nov-25 17:31N 37°36' E 024°05'1211.1
2014-Nov-25 16:28N 37°38' E 023°50'1010.6
2014-Nov-25 15:33N 37°43' E 023°40'1111.5
2014-Nov-25 14:33N 37°54' E 023°36'8 7.6
2014-Nov-25 13:33N 38°01' E 023°33'1 0.7
2014-Nov-25 12:32N 38°02' E 023°32'0 0.0
2014-Nov-25 11:32N 38°02' E 023°32'0 0.0
2014-Nov-25 10:29N 38°02' E 023°32'0 0.0
2014-Nov-25 09:32N 38°02' E 023°32'0 0.0
2014-Nov-25 08:32N 38°02' E 023°32'0 0.0
2014-Nov-25 07:32N 38°02' E 023°32'0 0.0
2014-Nov-25 06:32N 38°02' E 023°32'0 0.0
2014-Nov-25 05:32N 38°02' E 023°32'0 0.0
2014-Nov-25 04:32N 38°02' E 023°32'0 0.0
2014-Nov-25 03:32N 38°02' E 023°32'0 0.0
2014-Nov-25 02:32N 38°02' E 023°32'0 0.0
2014-Nov-25 01:32N 38°02' E 023°32'0 0.0
2014-Nov-25 00:32N 38°02' E 023°32'0 0.0
2014-Nov-24 23:32N 38°02' E 023°32'0 0.0
2014-Nov-24 22:32N 38°02' E 023°32'0 0.0
2014-Nov-24 21:32N 38°02' E 023°32'0 0.0
2014-Nov-24 20:32N 38°02' E 023°32'0 0.0
2014-Nov-24 19:32N 38°02' E 023°32'0 0.0
2014-Nov-24 18:32N 38°02' E 023°32'0 0.0
2014-Nov-24 17:32N 38°02' E 023°32'0 0.0
2014-Nov-24 16:32N 38°02' E 023°32'0 0.0
2014-Nov-24 15:32N 38°02' E 023°32'0 0.0
2014-Nov-24 14:32N 38°02' E 023°32'0 0.0
2014-Nov-24 13:32N 38°02' E 023°32'0 0.0
2014-Nov-24 12:32N 38°02' E 023°32'0 0.0
2014-Nov-24 11:26N 38°02' E 023°32'0 0.0
2014-Nov-24 10:32N 38°02' E 023°32'0 0.0
2014-Nov-24 09:32N 38°02' E 023°32'0 0.0
2014-Nov-24 08:32N 38°02' E 023°32'0 0.0
2014-Nov-24 07:32N 38°02' E 023°32'0 0.0
2014-Nov-24 06:32N 38°02' E 023°32'0 0.0
2014-Nov-24 05:32N 38°02' E 023°32'0 0.0
2014-Nov-24 04:32N 38°02' E 023°32'0 0.0
2014-Nov-24 03:32N 38°02' E 023°32'0 0.0
2014-Nov-24 02:32N 38°02' E 023°32'0 0.0
2014-Nov-24 01:32N 38°02' E 023°32'0 0.0
2014-Nov-24 00:32N 38°02' E 023°32'0 0.0
2014-Nov-23 23:32N 38°02' E 023°32'0 0.0
2014-Nov-23 22:29N 38°02' E 023°32'0 0.0
2014-Nov-23 21:32N 38°02' E 023°32'0 0.0
2014-Nov-23 20:32N 38°02' E 023°32'0 0.0
2014-Nov-23 19:29N 38°02' E 023°32'0 0.0
2014-Nov-23 18:32N 38°02' E 023°32'0 0.0
2014-Nov-23 17:32N 38°02' E 023°32'0 0.0
2014-Nov-23 16:32N 38°02' E 023°32'0 0.0
2014-Nov-23 15:32N 38°02' E 023°32'0 0.0
2014-Nov-23 14:32N 38°02' E 023°32'0 0.0
2014-Nov-23 13:32N 38°02' E 023°32'0 0.0
2014-Nov-23 12:32N 38°02' E 023°32'0 0.0
2014-Nov-23 11:32N 38°02' E 023°32'0 0.5
2014-Nov-23 10:33N 38°02' E 023°32'7 7.3
2014-Nov-23 09:34N 37°55' E 023°37'2 2.3
2014-Nov-23 08:33N 37°53' E 023°38'9 9.3
2014-Nov-23 07:33N 37°45' E 023°43'9 8.7
2014-Nov-23 06:30N 37°36' E 023°45'46 9.1
2014-Nov-23 01:26N 36°50' E 023°33'  
2014-Nov-20 10:07N 37°50' E 015°45'16 8.8
2014-Nov-20 08:16N 38°03' E 015°33'811.2
2014-Nov-20 07:33N 38°11' E 015°36'1310.2
2014-Nov-20 06:19N 38°24' E 015°36'13811.3
2014-Nov-19 18:09N 40°26' E 014°13'610.7
2014-Nov-19 17:33N 40°31' E 014°09'1010.4
2014-Nov-19 16:34N 40°41' E 014°13'9 9.4
2014-Nov-19 15:33N 40°50' E 014°17'0 0.0
2014-Nov-18 07:26N 40°50' E 014°17'3 3.7
2014-Nov-18 06:33N 40°47' E 014°16'10 9.6
2014-Nov-18 05:33N 40°40' E 014°07'9 8.8
2014-Nov-18 04:33N 40°34' E 013°59'8 8.5
2014-Nov-18 03:34N 40°30' E 013°49'18 8.7
2014-Nov-18 01:28N 40°22' E 013°28'207 9.5
2014-Nov-17 03:32N 38°50' E 009°27'1010.6
2014-Nov-17 02:33N 38°46' E 009°15'1010.5
2014-Nov-17 01:33N 38°41' E 009°03'1110.7
2014-Nov-17 00:33N 38°38' E 008°49'1110.6
2014-Nov-16 23:32N 38°35' E 008°36'  

Dump ship's entire track history